Theta_e
338 326 320 319 317 315 314 312 312 313 313 312 312 312 312 313 314 315 316 317 317 317 317 315 313 312 312 312 314 312 312 312 315 319 325 340 342 343 342 342 341 341 342
336 326 319 319 317 315 313 311 312 313 312 311 311 311 310 310 310 309 309 309 309 310 313 312 312 313 314 315 317 318 319 317 314 314 316 321 340 341 342 341 342 339 340
334 325 319 319 317 315 313 311 312 312 312 311 311 311 310 310 310 310 310 309 310 312 318 322 322 321 321 323 324 323 323 323 324 325 327 315 323 337 340 342 341 338 337
331 325 319 318 316 315 313 312 312 313 312 312 312 312 312 312 312 311 311 310 311 314 322 323 324 326 325 326 327 327 326 326 327 331 327 318 313 323 335 339 344 341 340
330 331 320 317 316 315 314 313 313 313 313 313 313 313 313 313 313 313 313 314 314 320 326 327 328 329 332 334 333 333 332 330 331 333 328 322 315 318 325 328 341 341 342
334 331 321 317 316 315 314 314 313 314 313 313 314 314 314 315 315 315 316 317 319 323 329 332 332 333 334 336 335 335 337 336 334 333 331 326 321 324 331 332 335 339 339
335 328 322 318 316 315 315 315 314 314 314 314 314 315 315 316 316 317 318 320 325 331 334 335 334 335 335 337 338 337 335 335 336 331 331 330 326 330 333 331 330 337 338
334 332 324 320 317 315 315 315 314 314 314 314 315 315 316 316 317 318 319 321 327 333 333 334 333 334 335 334 333 334 335 337 337 333 327 331 329 332 332 337 336 336 337
335 333 329 323 319 315 315 314 315 314 314 315 315 316 316 317 318 319 319 320 325 330 331 333 335 336 334 331 331 332 332 335 337 335 332 327 329 332 333 336 333 330 329
334 332 329 326 323 320 317 314 314 315 314 315 316 316 317 317 318 319 320 321 323 329 331 332 331 331 331 331 329 330 333 333 334 336 333 331 326 331 333 335 332 329 328
338 336 332 328 327 325 321 319 315 315 315 315 316 316 317 318 319 320 321 321 323 329 331 331 330 330 330 329 327 327 331 331 331 332 333 332 330 326 332 335 332 330 329
339 338 336 333 329 329 329 325 321 317 316 315 316 318 318 319 319 320 321 322 322 329 332 332 331 330 330 328 327 326 328 328 329 330 330 329 328 327 328 332 333 331 330
336 338 338 337 333 330 330 329 326 323 319 319 318 319 320 320 320 322 322 323 322 328 333 335 334 332 330 329 328 327 326 321 324 326 326 326 325 325 330 330 330 331 330
329 330 334 337 337 334 332 331 329 325 322 321 322 322 322 323 323 324 323 322 322 326 333 334 335 334 332 330 329 329 328 328 328 329 330 330 329 328 327 333 331 331 330
324 326 327 328 332 336 336 334 332 329 326 324 325 326 325 326 322 322 324 323 323 325 333 334 335 335 332 330 330 330 329 329 330 330 330 330 330 329 323 333 335 331 330
323 325 326 326 327 334 337 337 335 333 331 329 327 326 329 326 322 321 323 324 324 325 333 333 334 333 332 331 330 330 329 329 330 330 330 328 329 328 327 329 330 334 330
324 325 325 324 325 329 335 337 337 335 333 331 330 329 330 331 326 321 322 324 324 326 334 334 333 333 332 331 331 330 329 329 330 330 329 329 328 329 329 328 329 332 331
324 324 324 323 324 326 332 336 337 336 334 333 332 332 332 332 327 323 323 325 325 327 335 333 333 333 332 331 331 330 329 330 330 329 328 329 327 329 329 327 328 328 328
323 324 324 323 324 325 329 335 338 337 336 335 334 334 333 332 329 327 325 326 325 332 335 334 333 332 332 332 331 330 330 330 330 329 328 328 327 328 329 328 328 328 328
324 324 323 324 324 325 332 337 339 338 338 337 336 336 335 334 332 329 327 325 327 336 334 334 333 333 332 331 331 329 329 329 329 328 328 327 327 327 329 329 329 328 327
323 322 323 323 324 328 337 339 338 338 338 338 338 338 337 335 333 332 330 329 333 335 334 334 333 332 331 330 328 327 327 328 328 327 327 327 327 327 327 328 328 327 327
321 321 324 324 324 331 337 338 339 338 337 338 339 339 338 336 334 333 333 333 336 334 334 333 332 331 329 328 326 324 327 326 326 326 326 326 327 327 327 327 328 328 327
320 322 322 324 323 329 338 339 340 339 338 338 339 339 338 338 337 337 336 337 335 334 333 333 332 330 328 326 327 324 325 327 324 326 326 326 326 327 327 327 327 327 327
320 321 322 324 326 329 336 339 339 338 336 338 339 339 339 339 339 339 338 336 334 334 332 332 330 328 327 325 325 325 323 322 325 326 325 324 326 326 327 327 326 327 327
318 319 323 330 334 337 339 340 340 338 337 338 340 340 338 338 338 336 335 334 334 332 329 328 328 328 327 326 325 324 324 324 324 325 326 324 325 326 327 327 327 327 327
331 332 337 339 340 340 341 340 339 337 336 335 335 335 335 333 335 334 334 334 331 330 328 327 327 328 328 327 326 324 324 323 324 324 324 321 323 325 327 327 327 328 328
Wind_Speed
25 27 30 28 26 24 24 24 23 21 20 20 19 19 19 18 17 16 14 13 11 10 9 8 7 5 4 3 2 3 3 4 4 2 1 2 1 6 4 4 6 8 12
32 29 32 31 29 26 25 25 24 23 21 21 20 18 17 16 15 14 12 11 10 8 7 6 5 4 4 3 1 0 1 2 3 4 4 3 3 1 5 6 6 8 8
30 31 35 33 31 28 27 26 25 24 23 22 21 20 19 17 16 14 13 12 10 8 7 6 5 4 4 3 1 1 1 1 3 3 2 5 6 5 5 5 9 10 9
30 32 37 35 33 29 28 27 26 25 24 23 22 21 19 18 17 16 14 12 11 10 8 6 5 3 2 2 1 0 1 1 1 2 4 4 6 6 7 7 9 11 11
27 32 38 36 34 30 29 29 28 26 25 24 22 20 19 18 16 15 14 12 11 10 9 7 5 3 2 1 2 3 3 3 2 3 5 5 5 6 5 8 12 12 13
27 35 38 37 34 32 32 31 29 27 26 24 22 19 19 17 16 14 13 12 11 10 9 8 6 4 3 3 4 5 7 6 4 5 5 5 4 4 5 10 14 13 14
29 35 38 37 36 35 34 33 31 30 27 24 22 21 19 18 17 15 12 10 10 10 10 8 6 5 5 6 7 7 8 7 7 8 7 5 4 4 5 5 13 13 13
27 34 37 38 38 36 35 34 33 31 29 27 24 23 21 19 17 15 12 10 10 11 9 9 8 6 6 9 10 10 10 10 9 10 8 7 5 4 5 8 11 11 12
23 29 35 36 39 38 37 36 35 33 31 28 27 24 21 19 18 15 12 10 10 10 9 9 7 7 8 8 9 10 10 11 12 13 12 10 7 6 5 8 10 9 8
22 27 31 36 39 39 40 39 37 35 33 31 29 27 25 23 20 17 14 12 10 10 8 8 7 6 7 8 9 10 10 11 13 14 15 12 9 9 6 9 11 12 11
19 23 27 35 38 41 41 40 39 37 35 34 33 31 28 27 24 20 17 15 12 11 10 10 8 7 6 7 7 9 10 12 14 15 16 14 11 10 9 8 12 12 13
24 28 30 33 39 40 41 41 39 40 39 39 37 35 33 31 27 24 20 17 14 13 12 12 11 9 8 7 7 8 11 12 13 14 16 15 14 13 11 9 13 14 13
33 30 34 35 38 42 44 43 43 43 43 41 41 39 37 32 29 27 24 20 17 15 16 15 14 12 10 9 9 8 8 10 10 11 12 12 12 13 13 11 13 15 15
33 36 36 36 38 42 43 45 45 46 47 47 46 42 40 36 32 28 27 23 21 19 18 18 17 14 12 11 11 10 9 9 10 10 11 10 11 13 14 12 15 15 15
25 30 33 34 36 40 43 43 43 48 48 49 46 45 41 38 36 33 29 26 24 20 20 18 17 15 13 12 13 13 12 14 13 12 10 8 8 10 15 14 14 16 16
25 23 25 31 36 38 43 46 48 41 41 44 46 47 44 43 38 34 33 30 25 22 20 18 17 17 14 14 15 15 15 15 14 13 12 11 10 9 12 14 17 16 16
28 25 27 29 29 37 43 44 44 43 43 45 45 42 41 43 37 35 34 32 26 22 20 19 17 17 15 14 16 16 16 16 16 14 14 14 12 13 13 14 15 15 14
28 33 36 31 25 30 38 41 42 42 43 42 39 37 39 36 35 34 34 30 22 20 20 18 18 17 15 15 17 18 17 17 17 17 16 15 13 13 14 16 14 13 13
37 38 38 33 29 30 34 38 38 39 40 37 34 33 31 30 31 34 34 26 22 19 21 20 18 16 16 17 18 18 19 20 20 17 15 15 13 12 13 18 15 14 13
38 42 39 37 30 30 30 30 31 31 31 31 30 28 25 27 31 33 33 32 25 23 21 18 17 17 19 18 18 18 17 18 19 17 15 14 15 14 13 19 17 14 13
39 39 36 31 27 25 27 26 24 25 26 25 25 21 25 26 29 31 28 24 22 23 21 17 17 16 15 14 10 10 11 13 15 13 14 14 14 12 13 16 17 15 13
36 35 30 26 22 25 28 26 15 23 19 23 17 20 22 24 27 24 26 27 23 21 17 17 17 12 8 9 4 2 2 1 11 11 9 11 13 12 13 14 14 13 11
33 34 30 29 23 23 26 22 14 16 11 18 20 20 22 23 22 25 25 23 20 16 17 17 15 13 8 7 11 3 1 2 0 2 6 6 9 10 13 13 13 13 13
35 26 24 21 20 24 26 26 26 18 13 14 25 23 22 22 22 23 22 20 17 14 14 14 12 11 11 9 10 12 2 2 1 1 1 8 9 11 10 12 11 11 11
28 22 17 17 17 21 25 24 25 21 19 20 24 23 22 19 18 18 19 16 13 13 11 10 11 11 12 10 9 5 11 4 1 1 2 1 3 8 8 10 10 11 9
11 8 11 15 17 21 24 25 26 27 25 28 28 25 19 16 16 16 15 13 12 11 10 10 10 10 11 11 11 11 7 5 4 3 2 1 2 2 4 7 9 9 11
Wind_Direction
185 184 181 179 179 172 169 168 167 165 162 157 156 157 156 159 162 164 168 172 177 180 182 184 184 181 182 192 220 239 235 235 234 209 186 151 212 150 162 157 169 171 161
185 183 184 183 183 176 175 173 171 169 166 164 160 159 160 160 161 160 165 169 174 178 176 169 166 161 155 151 150 80 358 306 265 249 230 225 195 165 168 182 189 179 187
183 182 186 186 186 181 178 177 176 174 170 168 165 164 165 166 166 165 167 167 169 173 168 156 154 150 146 136 128 97 349 341 347 348 320 242 206 186 160 194 190 189 191
183 182 187 188 189 184 183 182 181 180 177 174 171 170 169 170 168 167 166 163 165 167 166 163 162 157 146 137 142 273 294 312 335 337 303 281 232 204 195 189 206 208 194
187 195 190 190 191 187 189 188 187 187 185 181 178 175 173 173 170 169 167 162 164 167 169 170 174 176 174 234 282 290 293 296 306 296 305 300 259 213 233 225 199 206 199
192 194 191 193 193 193 194 194 193 193 191 186 183 181 178 179 175 173 170 166 166 169 177 182 190 200 212 248 265 273 272 280 287 292 303 299 263 258 265 224 214 201 205
195 195 195 196 197 198 199 200 199 198 197 193 188 187 186 186 182 178 175 171 175 179 185 195 207 224 237 259 262 267 274 264 273 283 284 286 245 286 257 205 204 203 209
198 199 199 201 203 203 204 205 205 203 202 200 195 192 192 190 188 184 179 181 188 192 193 203 213 228 253 265 266 265 265 263 267 272 276 278 256 272 231 196 204 211 210
207 205 204 205 207 209 210 210 211 210 207 205 202 200 196 194 195 192 189 189 197 199 203 210 218 231 252 265 270 270 268 263 260 267 274 271 262 255 226 212 207 212 214
212 215 213 211 213 214 215 215 215 214 213 211 209 205 203 200 198 198 198 200 203 204 208 215 217 232 252 266 270 267 264 264 256 258 264 264 262 244 257 218 221 227 226
230 229 226 221 220 219 220 220 220 219 219 217 215 213 206 203 200 201 203 205 211 211 214 217 218 231 253 267 271 275 271 260 257 253 257 257 264 254 248 227 229 229 235
238 237 232 230 227 225 225 224 221 221 220 220 220 215 212 208 205 204 207 209 215 219 222 225 224 231 247 264 273 278 267 262 259 256 256 258 263 255 248 242 234 235 236
243 244 239 234 233 229 228 227 225 225 224 223 222 219 216 212 207 207 207 212 217 222 227 230 232 231 240 256 270 280 287 258 259 260 262 261 258 252 249 239 226 230 236
250 254 248 243 238 235 230 228 227 226 225 226 225 222 219 213 209 211 213 214 220 226 233 236 238 238 238 250 259 265 263 263 264 270 275 267 256 252 239 230 224 224 227
254 253 252 249 245 242 233 229 230 229 226 227 226 225 220 216 212 214 219 219 225 229 233 235 240 241 239 249 257 259 262 260 268 273 270 266 270 259 224 222 225 225 228
266 265 259 247 249 241 237 234 232 226 228 230 229 227 222 220 215 216 220 223 227 230 234 236 241 244 244 252 257 262 262 257 259 267 272 282 267 243 229 237 231 218 224
284 282 275 270 249 241 240 236 231 229 231 231 230 228 224 222 218 219 223 226 226 237 234 241 241 241 244 253 260 256 255 257 252 260 273 274 265 232 242 232 215 217 221
282 285 294 287 274 251 240 236 229 230 231 230 227 225 225 220 222 224 226 227 230 242 240 240 238 235 246 259 263 253 249 249 251 261 267 265 261 258 251 223 217 219 224
295 296 295 291 281 262 241 235 232 228 229 227 225 224 221 225 222 222 225 224 236 237 235 237 228 235 250 257 258 258 257 254 255 261 257 254 251 255 245 218 218 222 228
295 294 289 284 274 254 236 225 224 224 229 226 224 223 229 228 219 220 220 218 205 219 230 226 233 241 245 255 270 275 271 259 251 252 250 248 245 245 237 217 215 225 228
291 290 287 282 270 235 211 198 205 205 216 219 220 226 229 223 217 215 214 216 201 209 219 229 235 236 246 262 272 291 272 252 246 246 244 233 233 232 241 231 213 220 230
285 286 287 278 256 223 213 201 197 198 207 212 217 219 223 215 210 199 203 204 198 205 218 226 226 236 250 246 208 227 306 281 236 233 226 222 226 233 234 232 221 214 233
280 281 285 278 249 218 211 190 176 167 173 189 202 207 209 207 199 199 198 195 201 211 224 228 234 239 239 233 210 186 139 237 281 192 196 228 231 230 235 218 212 222 229
273 290 288 267 223 206 204 191 181 169 160 194 193 195 193 193 194 196 195 194 204 216 222 232 239 239 226 213 207 219 170 152 163 81 8 280 266 237 240 214 219 219 223
280 283 269 225 202 190 188 188 181 181 183 177 180 173 169 179 183 185 192 199 207 215 229 239 230 222 220 213 199 180 212 222 153 101 103 345 228 211 214 205 208 207 215
288 250 204 180 167 170 174 176 177 170 160 154 159 164 172 181 181 187 193 200 209 225 227 226 223 227 227 226 223 216 188 170 211 164 127 141 155 213 181 174 179 192 191